�������l�o���
Date,Time,MP-1(��Sv/h),MP-2(��Sv/h),MP-3(��Sv/h),MP-4(��Sv/h),MP-5(��Sv/h),MP-6(��Sv/h),MP-7(��Sv/h),MP-8(��Sv/h),����,����(m/s),���J
2019/10/07,00:00,0.722,1.021,0.707,1.265,0.924,0.411,0.722,0.685,�k�k��,7.0,��
2019/10/07,00:10,0.725,1.021,0.706,1.266,0.923,0.411,0.722,0.686,�k�k��,6.8,��
2019/10/07,00:20,0.724,1.022,0.706,1.265,0.920,0.411,0.721,0.686,�k�k��,8.3,��
2019/10/07,00:30,0.724,1.020,0.706,1.266,0.924,0.411,0.721,0.685,�k�k��,8.2,��
2019/10/07,00:40,0.721,1.023,0.709,1.266,0.924,0.411,0.722,0.685,�k�k��,8.8,��
2019/10/07,00:50,0.724,1.023,0.705,1.266,0.923,0.410,0.721,0.685,�k�k��,8.9,�L
2019/10/07,01:00,0.725,1.023,0.707,1.267,0.920,0.410,0.721,0.686,�k�k��,8.7,��
2019/10/07,01:10,0.725,1.022,0.708,1.268,0.924,0.411,0.720,0.684,�k�k��,7.3,��
2019/10/07,01:20,0.723,1.019,0.706,1.268,0.924,0.410,0.721,0.686,�k�k��,7.2,��
2019/10/07,01:30,0.724,1.021,0.707,1.266,0.923,0.410,0.721,0.686,�k�k��,8.2,��
2019/10/07,01:40,0.725,1.022,0.708,1.267,0.923,0.410,0.724,0.686,�k��,7.4,��
2019/10/07,01:50,0.723,1.020,0.708,1.268,0.924,0.410,0.721,0.685,�k��,7.3,��
2019/10/07,02:00,0.723,1.023,0.708,1.267,0.923,0.411,0.720,0.686,�k�k��,6.8,��
2019/10/07,02:10,0.723,1.022,0.707,1.267,0.923,0.410,0.722,0.686,�k�k��,8.3,��
2019/10/07,02:20,0.723,1.022,0.707,1.266,0.923,0.412,0.722,0.686,�k�k��,8.4,�L
2019/10/07,02:30,0.723,1.023,0.708,1.267,0.923,0.410,0.722,0.686,�k�k��,7.9,�L
2019/10/07,02:40,0.723,1.022,0.708,1.268,0.925,0.410,0.721,0.685,�k�k��,7.8,�L
2019/10/07,02:50,0.723,1.022,0.706,1.267,0.922,0.409,0.722,0.685,�k�k��,7.0,��
2019/10/07,03:00,0.725,1.021,0.708,1.266,0.924,0.410,0.720,0.686,�k�k��,6.7,��
2019/10/07,03:10,0.724,1.022,0.709,1.266,0.923,0.411,0.722,0.686,�k�k��,6.5,��
2019/10/07,03:20,0.724,1.022,0.709,1.264,0.922,0.412,0.721,0.687,�k�k��,6.4,��
2019/10/07,03:30,0.727,1.023,0.710,1.267,0.923,0.412,0.721,0.688,�k�k��,5.7,�L
2019/10/07,03:40,0.726,1.023,0.709,1.265,0.924,0.412,0.721,0.687,�k�k��,5.6,��
2019/10/07,03:50,0.724,1.022,0.707,1.268,0.926,0.413,0.723,0.687,�k�k��,5.3,�L
2019/10/07,04:00,0.727,1.023,0.707,1.268,0.923,0.412,0.721,0.686,�k,3.9,��
2019/10/07,04:10,0.726,1.022,0.707,1.266,0.926,0.411,0.723,0.687,�k,2.0,��
2019/10/07,04:20,0.724,1.022,0.708,1.268,0.927,0.411,0.723,0.686,�k�k��,1.7,��
2019/10/07,04:30,0.725,1.022,0.707,1.265,0.925,0.410,0.722,0.687,�k��,3.4,��
2019/10/07,04:40,0.724,1.024,0.707,1.269,0.924,0.412,0.722,0.687,�k��,4.0,�L
2019/10/07,04:50,0.727,1.023,0.709,1.267,0.925,0.413,0.722,0.685,�k��,3.2,�L
2019/10/07,05:00,0.725,1.023,0.707,1.266,0.923,0.412,0.724,0.686,�k�k��,4.9,�L
2019/10/07,05:10,0.726,1.023,0.707,1.269,0.924,0.412,0.722,0.686,�k�k��,4.9,�L
2019/10/07,05:20,0.726,1.023,0.708,1.265,0.923,0.410,0.722,0.686,�k�k��,4.6,�L
2019/10/07,05:30,0.726,1.023,0.709,1.267,0.924,0.411,0.724,0.686,�k,5.2,�L
2019/10/07,05:40,0.726,1.022,0.706,1.267,0.924,0.412,0.722,0.686,�k,4.9,�L
2019/10/07,05:50,0.725,1.021,0.709,1.267,0.926,0.412,0.722,0.685,�k,3.5,�L
2019/10/07,06:00,0.727,1.020,0.708,1.267,0.924,0.412,0.724,0.687,�k�k��,3.6,��
2019/10/07,06:10,0.725,1.023,0.707,1.267,0.927,0.411,0.721,0.687,�k�k��,3.6,��
2019/10/07,06:20,0.727,1.025,0.710,1.268,0.924,0.411,0.724,0.687,�k�k��,4.5,��
2019/10/07,06:30,0.724,1.025,0.707,1.267,0.926,0.411,0.723,0.686,�k��,7.7,��
2019/10/07,06:40,0.727,1.020,0.708,1.269,0.924,0.412,0.724,0.685,�k��,7.8,��
2019/10/07,06:50,0.728,1.020,0.707,1.271,0.924,0.412,0.723,0.687,�k��,6.8,��
2019/10/07,07:00,0.726,1.024,0.710,1.267,0.925,0.412,0.723,0.687,�k��,7.0,��
2019/10/07,07:10,0.725,1.024,0.708,1.267,0.924,0.411,0.722,0.688,���k��,7.1,��
2019/10/07,07:20,0.725,1.022,0.709,1.269,0.924,0.412,0.724,0.685,���k��,6.2,��
2019/10/07,07:30,0.725,1.021,0.708,1.270,0.925,0.411,0.722,0.685,���k��,6.6,�L
2019/10/07,07:40,0.725,1.019,0.709,1.269,0.924,0.412,0.723,0.685,���k��,7.2,��
2019/10/07,07:50,0.725,1.021,0.708,1.267,0.924,0.411,0.722,0.684,���k��,7.9,�L
2019/10/07,08:00,0.722,1.020,0.707,1.269,0.922,0.412,0.723,0.683,��,7.3,�L
2019/10/07,08:10,0.723,1.020,0.708,1.268,0.919,0.412,0.722,0.685,���k��,6.7,�L
2019/10/07,08:20,0.724,1.019,0.706,1.268,0.920,0.410,0.723,0.684,��,6.0,��
2019/10/07,08:30,0.725,1.020,0.706,1.265,0.922,0.411,0.724,0.685,��,7.0,�L
2019/10/07,08:40,0.726,1.016,0.707,1.269,0.922,0.411,0.722,0.685,��,5.3,�L
2019/10/07,08:50,0.723,1.018,0.706,1.268,0.923,0.411,0.724,0.685,���k��,4.4,�L
2019/10/07,09:00,0.722,1.014,0.706,1.268,0.922,0.412,0.723,0.687,�k��,3.8,�L
2019/10/07,09:10,0.722,1.008,0.702,1.267,0.920,0.413,0.723,0.686,�k��,3.1,�L
2019/10/07,09:20,0.716,1.007,0.704,1.266,0.917,0.413,0.724,0.686,�k��,1.7,�L
2019/10/07,09:30,0.716,1.006,0.703,1.266,0.919,0.413,0.723,0.686,�k��,1.7,�L
2019/10/07,09:40,0.716,1.003,0.701,1.267,0.919,0.414,0.724,0.685,�k��,2.0,�L
2019/10/07,09:50,0.718,1.009,0.704,1.264,0.919,0.414,0.721,0.685,���k��,3.4,�L
2019/10/07,10:00,0.717,1.006,0.704,1.264,0.918,0.415,0.724,0.685,�k��,2.6,�L
2019/10/07,10:10,0.715,1.005,0.702,1.263,0.918,0.414,0.725,0.683,�k�k��,2.2,�L
2019/10/07,10:20,0.716,1.006,0.704,1.263,0.919,0.413,0.723,0.685,�k�k��,3.1,�L
2019/10/07,10:30,0.715,1.007,0.705,1.264,0.917,0.412,0.724,0.683,�k�k��,4.0,�L
2019/10/07,10:40,0.715,1.006,0.702,1.263,0.918,0.413,0.724,0.684,�k�k��,3.5,�L
2019/10/07,10:50,0.714,1.007,0.702,1.264,0.920,0.415,0.721,0.685,�k�k��,3.4,�L
2019/10/07,11:00,0.711,1.007,0.702,1.264,0.919,0.413,0.724,0.683,�k�k��,2.5,�L
2019/10/07,11:10,0.712,1.008,0.703,1.263,0.917,0.413,0.724,0.683,���쓌,2.3,�L
2019/10/07,11:20,0.718,1.005,0.699,1.262,0.917,0.414,0.723,0.682,��,2.9,�L
2019/10/07,11:30,0.719,1.007,0.702,1.262,0.915,0.415,0.723,0.683,��,3.0,�L
2019/10/07,11:40,0.720,1.005,0.703,1.263,0.916,0.413,0.724,0.683,��,4.3,�L
2019/10/07,11:50,0.719,1.008,0.703,1.260,0.915,0.413,0.723,0.685,��,5.0,�L
2019/10/07,12:00,0.720,1.010,0.704,1.265,0.916,0.413,0.723,0.684,��,3.9,�L
2019/10/07,12:10,0.720,1.009,0.703,1.261,0.916,0.412,0.722,0.682,��,4.7,��
2019/10/07,12:20,0.721,1.011,0.707,1.262,0.916,0.411,0.723,0.683,���k��,4.5,��
2019/10/07,12:30,0.721,1.008,0.704,1.262,0.915,0.413,0.723,0.685,���k��,4.0,�L
2019/10/07,12:40,0.720,1.011,0.702,1.262,0.916,0.412,0.724,0.684,���k��,3.7,�L
2019/10/07,12:50,0.720,1.008,0.703,1.264,0.914,0.413,0.724,0.685,���k��,4.4,�L
2019/10/07,13:00,0.717,1.008,0.700,1.261,0.917,0.412,0.723,0.685,���k��,3.4,�L
2019/10/07,13:10,0.713,1.008,0.700,1.262,0.917,0.411,0.724,0.683,��,2.9,�L
2019/10/07,13:20,0.715,1.008,0.699,1.260,0.916,0.411,0.723,0.683,���k��,2.5,�L
2019/10/07,13:30,0.716,1.005,0.703,1.259,0.915,0.413,0.722,0.683,���k��,1.7,�L
2019/10/07,13:40,0.717,1.004,0.702,1.264,0.917,0.413,0.723,0.683,�k��,1.2,�L
2019/10/07,13:50,0.715,1.008,0.702,1.264,0.917,0.413,0.724,0.685,�k,1.2,�L
2019/10/07,14:00,0.716,1.009,0.703,1.261,0.916,0.414,0.723,0.684,�k��,1.9,�L
2019/10/07,14:10,0.718,1.010,0.703,1.262,0.918,0.413,0.723,0.686,�k��,2.0,�L
2019/10/07,14:20,0.717,1.011,0.703,1.263,0.917,0.413,0.723,0.684,�k��,1.9,�L
2019/10/07,14:30,0.717,1.009,0.704,1.263,0.916,0.414,0.721,0.683,�k�k��,2.6,�L
2019/10/07,14:40,0.719,1.011,0.703,1.263,0.915,0.412,0.720,0.681,�k�k��,2.3,�L
2019/10/07,14:50,0.716,1.005,0.704,1.262,0.915,0.414,0.720,0.683,�k,3.0,�L
2019/10/07,15:00,0.715,1.002,0.700,1.259,0.914,0.413,0.720,0.682,�k,3.0,�L
2019/10/07,15:10,0.713,1.004,0.702,1.257,0.911,0.413,0.721,0.680,�k,3.4,�L
2019/10/07,15:20,0.711,1.003,0.701,1.257,0.911,0.411,0.719,0.679,�k�k��,2.0,�L
2019/10/07,15:30,0.709,1.002,0.699,1.258,0.912,0.411,0.721,0.682,�k��,2.2,�L
2019/10/07,15:40,0.715,1.001,0.700,1.256,0.909,0.411,0.720,0.681,�k�k��,2.5,�L
2019/10/07,15:50,0.716,1.000,0.699,1.256,0.911,0.412,0.720,0.681,�k��,2.9,�L
2019/10/07,16:00,0.716,0.999,0.697,1.254,0.908,0.412,0.720,0.680,�k��,2.2,�L
2019/10/07,16:10,0.714,0.997,0.696,1.255,0.908,0.411,0.717,0.680,���k��,2.3,�L
2019/10/07,16:20,0.713,0.997,0.698,1.251,0.907,0.410,0.717,0.679,��,1.4,�L
2019/10/07,16:30,0.713,0.997,0.696,1.251,0.905,0.411,0.718,0.680,��,1.2,�L
2019/10/07,16:40,0.713,0.999,0.697,1.253,0.908,0.411,0.717,0.680,���k��,1.1,�L
2019/10/07,16:50,0.716,0.998,0.696,1.251,0.906,0.412,0.718,0.679,���k��,1.2,�L
2019/10/07,17:00,0.714,1.001,0.697,1.252,0.906,0.412,0.717,0.682,�k��,0.9,��
2019/10/07,17:10,0.714,1.002,0.698,1.249,0.909,0.412,0.719,0.678,���k��,0.6,�L
2019/10/07,17:20,0.717,1.001,0.697,1.252,0.910,0.412,0.717,0.679,�k��,0.6,�L
2019/10/07,17:30,0.715,1.003,0.697,1.252,0.908,0.412,0.717,0.678,�k�k��,0.9,�L
2019/10/07,17:40,0.715,1.004,0.697,1.252,0.910,0.411,0.717,0.681,�k��,1.2,�L
2019/10/07,17:50,0.716,1.003,0.698,1.251,0.910,0.412,0.717,0.682,�k,1.5,�L
2019/10/07,18:00,0.717,1.004,0.698,1.251,0.909,0.412,0.718,0.681,�k�k��,1.7,�L
2019/10/07,18:10,0.716,1.004,0.697,1.251,0.907,0.411,0.717,0.682,�k��,1.5,�L
2019/10/07,18:20,0.717,1.004,0.697,1.252,0.909,0.412,0.717,0.683,���k��,2.3,�L
2019/10/07,18:30,0.715,0.997,0.694,1.244,0.902,0.411,0.715,0.680,���k��,2.3,�L
2019/10/07,18:40,0.711,0.992,0.692,1.236,0.898,0.410,0.714,0.679,�k��,2.6,�L
2019/10/07,18:50,0.707,0.992,0.691,1.237,0.900,0.407,0.713,0.678,�k�k��,2.3,�L
2019/10/07,19:00,0.710,0.993,0.693,1.237,0.900,0.409,0.714,0.676,�k��,2.3,�L
2019/10/07,19:10,0.710,0.995,0.694,1.238,0.901,0.409,0.713,0.677,�k��,2.8,��
2019/10/07,19:20,0.710,0.996,0.695,1.240,0.903,0.409,0.714,0.676,�k��,2.8,��
2019/10/07,19:30,0.711,0.995,0.694,1.238,0.903,0.409,0.714,0.678,�k��,2.6,��
2019/10/07,19:40,0.713,0.998,0.692,1.240,0.903,0.409,0.714,0.680,�k��,2.8,��
2019/10/07,19:50,0.711,1.000,0.694,1.241,0.904,0.410,0.715,0.678,�k��,2.2,��
2019/10/07,20:00,0.714,1.000,0.694,1.240,0.903,0.409,0.716,0.679,���k��,2.6,��
2019/10/07,20:10,0.715,1.000,0.694,1.241,0.906,0.410,0.714,0.679,���k��,2.3,��
2019/10/07,20:20,0.712,0.998,0.694,1.243,0.906,0.409,0.714,0.679,�k��,2.6,��
2019/10/07,20:30,0.712,1.001,0.695,1.241,0.904,0.409,0.714,0.678,�k��,2.0,��
2019/10/07,20:40,0.713,0.999,0.696,1.243,0.906,0.408,0.715,0.679,���k��,1.7,��
2019/10/07,20:50,0.713,1.002,0.694,1.241,0.905,0.412,0.716,0.681,���k��,2.3,��
2019/10/07,21:00,0.714,1.000,0.694,1.245,0.906,0.411,0.716,0.680,��,1.4,��
2019/10/07,21:10,0.714,1.002,0.693,1.244,0.906,0.412,0.715,0.681,��,1.5,��
2019/10/07,21:20,0.712,1.005,0.694,1.242,0.906,0.411,0.717,0.682,���쐼,1.2,��
2019/10/07,21:30,0.713,0.999,0.696,1.244,0.908,0.410,0.715,0.680,��,1.1,��
2019/10/07,21:40,0.714,1.003,0.696,1.245,0.908,0.410,0.716,0.680,�쓌,1.5,��
2019/10/07,21:50,0.713,1.002,0.695,1.247,0.909,0.411,0.716,0.681,�쓌,1.5,�L
2019/10/07,22:00,0.717,1.003,0.695,1.244,0.909,0.413,0.716,0.680,�k�k��,0.9,�L
2019/10/07,22:10,0.717,1.004,0.699,1.245,0.909,0.413,0.717,0.680,�k��,2.0,�L
2019/10/07,22:20,0.717,1.002,0.697,1.244,0.908,0.413,0.716,0.682,�k��,2.0,�L
2019/10/07,22:30,0.716,1.005,0.698,1.247,0.909,0.413,0.718,0.680,���k��,1.2,�L
2019/10/07,22:40,0.719,1.006,0.699,1.246,0.910,0.413,0.716,0.682,��,1.7,�L
2019/10/07,22:50,0.716,1.004,0.699,1.247,0.908,0.415,0.716,0.680,��쐼,1.4,�L
2019/10/07,23:00,0.716,1.003,0.698,1.246,0.909,0.413,0.716,0.680,��,3.2,�L
2019/10/07,23:10,0.715,1.005,0.698,1.248,0.909,0.414,0.716,0.680,��쐼,2.8,�L
2019/10/07,23:20,0.716,1.007,0.699,1.247,0.909,0.415,0.716,0.680,��쐼,1.7,�L
2019/10/07,23:30,0.717,1.003,0.697,1.247,0.910,0.413,0.716,0.680,��,3.3,�L
2019/10/07,23:40,0.717,1.001,0.696,1.245,0.908,0.414,0.714,0.682,��,4.9,�L
2019/10/07,23:50,0.714,1.002,0.696,1.247,0.908,0.413,0.716,0.679,��,4.7,�L
